Location: Heisler
(52.6701°N, 112.2239°W)
Time: 08:37:30
(UTC+00:00)

Envisat - Pass Details

Date: 30 November 2021
Orbit: 764 x 766 km, 98.2° (Epoch: 25 January)

Event Time Altitude Azimuth Distance (km) Brightness Sun altitude
Rises 00:57:58 0° 213° (SSW) 3,224 7.1 -14.2°
Reaches altitude 10° 01:01:05 10° 233° (SW) 2,304 6.6 -14.7°
Maximum altitude 01:04:20 17° 273° (W) 1,874 6.0 -15.1°
Drops below altitude 10° 01:07:36 10° 313° (NW) 2,315 5.9 -15.6°
Sets 01:10:46 0° 334° (NNW) 3,248 6.4 -16.1°
